Weather History for Galesburg, IL

Change the Weather History Date:

Saturday, October 19, 2013

  Actual Average Record
Temperature  
Mean Temperature 44 °F -  
Max Temperature 55 °F 59 °F 83 °F (1953)
Min Temperature 33 °F 38 °F 19 °F (1972)
Degree Days  
Heating Degree Days 22    
Moisture  
Dew Point 37 °F    
Average Humidity 75    
Maximum Humidity 100    
Minimum Humidity 45    
Precipitation  
Precipitation 0.00 in - - ()
Sea Level Pressure  
Sea Level Pressure 29.89 in    
Wind  
Wind Speed 8 mph (SW)    
Max Wind Speed 18 mph    
Max Gust Speed 26 mph    
Visibility 10 miles    
Events Rain    
Averages and records for this station are not official NWS values.
T = Trace of Precipitation, MM = Missing Value Source: NWS Daily Summary

Daily Weather History Graph

Daily Weather History Graph

Search for Another Location

Airport:

Trip Planner

Search our weather history database for the weather conditions in past years. The results will help you decide how hot, cold, wet, or windy it might be!

Date:

Astronomy

Oct. 19, 2013 Rise Set
Actual Time 7:17 AM CDT 6:14 PM CDT
Civil Twilight 6:49 AM CDT 6:42 PM CDT
Nautical Twilight 6:18 AM CDT 7:14 PM CDT
Astronomical Twilight 5:46 AM CDT 7:46 PM CDT
Moon 6:42 PM CDT (10/19) 7:56 AM CDT (10/19)
Length of Visible Light 11h 52m
Length of Day
10h 56m
Waxing Gibbous, 99% of the Moon is Illuminated
Oct 19
Waxing Gibbous
Oct 26
Last Quarter
Nov 3
New
Nov 9
First Quarter
Nov 17
Full

Hourly Weather History & Observations

Time (CDT) Temp. Windchill Dew Point Humidity Pressure Visibility Wind Dir Wind Speed Gust Speed Precip Events Conditions
12:15 AM 42.3 °F 37.9 °F 40.1 °F 92% 29.97 in 10.0 mi WSW 6.9 mph - N/A Rain Light Rain
12:35 AM 42.3 °F 38.6 °F 39.7 °F 91% 29.96 in 10.0 mi SW 5.8 mph - N/A   Overcast
12:55 AM 42.1 °F 37.7 °F 39.6 °F 91% 29.96 in 10.0 mi SW 6.9 mph - N/A   Overcast
1:15 AM 41.7 °F 36.7 °F 39.6 °F 92% 29.95 in 10.0 mi SW 8.1 mph - N/A   Overcast
1:35 AM 41.5 °F 37.1 °F 39.6 °F 93% 29.95 in 10.0 mi SW 6.9 mph - N/A   Overcast
1:55 AM 41.2 °F 37.3 °F 39.2 °F 93% 29.94 in 10.0 mi SW 5.8 mph - N/A   Overcast
2:15 AM 41.2 °F 36.6 °F 39.4 °F 93% 29.94 in 10.0 mi SW 6.9 mph - N/A   Overcast
2:35 AM 41.0 °F 36.4 °F 39.2 °F 93% 29.94 in 10.0 mi WSW 6.9 mph - N/A   Overcast
2:55 AM 40.6 °F 36.7 °F 39.2 °F 95% 29.93 in 10.0 mi SW 5.8 mph - N/A   Overcast
3:15 AM 40.1 °F 35.3 °F 38.7 °F 95% 29.93 in 10.0 mi SW 6.9 mph - N/A   Scattered Clouds
3:35 AM 39.9 °F 35.1 °F 38.3 °F 94% 29.92 in 10.0 mi SW 6.9 mph - N/A   Scattered Clouds
3:55 AM 39.6 °F 35.4 °F 38.1 °F 95% 29.92 in 10.0 mi SW 5.8 mph - N/A   Clear
4:15 AM 39.2 °F 35.0 °F 37.8 °F 95% 29.92 in 10.0 mi SW 5.8 mph - N/A   Clear
4:35 AM 38.5 °F 33.4 °F 37.4 °F 96% 29.92 in 10.0 mi SW 6.9 mph - N/A   Clear
4:55 AM 37.8 °F 33.3 °F 36.7 °F 96% 29.92 in 10.0 mi SW 5.8 mph - N/A   Clear
5:15 AM 37.0 °F 31.6 °F 36.3 °F 97% 29.92 in 10.0 mi SW 6.9 mph - N/A   Clear
5:35 AM 36.5 °F 31.8 °F 35.6 °F 97% 29.92 in 10.0 mi SW 5.8 mph - N/A   Clear
5:55 AM 35.8 °F 30.9 °F 34.9 °F 97% 29.92 in 10.0 mi SW 5.8 mph - N/A   Clear
6:15 AM 34.9 °F 30.8 °F 34.3 °F 98% 29.92 in 10.0 mi SW 4.6 mph - N/A   Clear
6:35 AM 33.6 °F 30.6 °F 33.3 °F 99% 29.92 in 10.0 mi SSW 3.5 mph - N/A   Clear
6:55 AM 33.1 °F 28.7 °F 33.1 °F 100% 29.92 in 10.0 mi SSW 4.6 mph - N/A   Clear
7:15 AM 33.1 °F 27.7 °F 33.1 °F 100% 29.92 in 10.0 mi SSW 5.8 mph - N/A   Scattered Clouds
7:35 AM 34.0 °F 28.8 °F 34.0 °F 100% 29.92 in 10.0 mi SSW 5.8 mph - N/A   Overcast
7:55 AM 35.4 °F 30.5 °F 34.7 °F 97% 29.92 in 10.0 mi SSW 5.8 mph - N/A   Overcast
8:15 AM 36.5 °F 31.0 °F 35.1 °F 95% 29.92 in 10.0 mi SW 6.9 mph - N/A   Overcast
8:35 AM 37.4 °F 32.1 °F 35.6 °F 93% 29.92 in 10.0 mi SW 6.9 mph - N/A   Overcast
8:55 AM 37.8 °F 31.8 °F 35.8 °F 93% 29.92 in 10.0 mi SW 8.1 mph - N/A   Overcast
9:15 AM 38.5 °F 32.1 °F 35.6 °F 89% 29.92 in 10.0 mi SW 9.2 mph - N/A   Overcast
9:35 AM 39.7 °F 33.7 °F 36.5 °F 88% 29.92 in 10.0 mi SW 9.2 mph - N/A   Overcast
9:55 AM 42.1 °F 37.1 °F 37.2 °F 83% 29.92 in 10.0 mi WSW 8.1 mph - N/A   Overcast
10:15 AM 44.1 °F 39.5 °F 37.6 °F 78% 29.91 in 10.0 mi WSW 8.1 mph - N/A   Scattered Clouds
10:35 AM 45.7 °F 40.6 °F 37.8 °F 74% 29.91 in 10.0 mi WSW 10.4 mph - N/A   Clear
10:55 AM 47.3 °F - 38.5 °F 71% 29.91 in 10.0 mi WSW 8.1 mph 16.1 mph N/A   Clear
11:15 AM 48.6 °F - 38.7 °F 69% 29.90 in 10.0 mi SW 10.4 mph - N/A   Clear
11:35 AM 49.3 °F - 38.5 °F 66% 29.90 in 10.0 mi SW 12.7 mph 16.1 mph N/A   Clear
11:55 AM 50.5 °F - 37.9 °F 62% 29.89 in 10.0 mi SW 13.8 mph 17.3 mph N/A   Clear
1:55 PM 54.1 °F - 35.8 °F 50% 29.85 in 10.0 mi SSW 17.3 mph 23.0 mph N/A   Mostly Cloudy
2:15 PM 54.7 °F - 36.3 °F 50% 29.84 in 10.0 mi SW 17.3 mph 21.9 mph N/A   Mostly Cloudy
2:35 PM 53.2 °F - 34.7 °F 49% 29.84 in 10.0 mi WSW 13.8 mph 24.2 mph N/A   Overcast
2:55 PM 53.6 °F - 36.0 °F 51% 29.84 in 10.0 mi WSW 9.2 mph - N/A   Mostly Cloudy
3:15 PM 54.9 °F - 34.7 °F 47% 29.83 in 10.0 mi SW 17.3 mph 26.5 mph N/A   Scattered Clouds
3:35 PM 54.1 °F - 34.2 °F 47% 29.83 in 10.0 mi SW 18.4 mph 25.3 mph N/A   Mostly Cloudy
3:55 PM 53.6 °F - 34.5 °F 48% 29.83 in 10.0 mi SW 11.5 mph 21.9 mph N/A   Overcast
4:15 PM 54.1 °F - 34.5 °F 48% 29.82 in 10.0 mi WSW 10.4 mph 18.4 mph N/A   Mostly Cloudy
4:35 PM 54.0 °F - 34.0 °F 47% 29.82 in 10.0 mi WSW 13.8 mph 21.9 mph N/A   Mostly Cloudy
4:55 PM 54.0 °F - 33.4 °F 46% 29.83 in 10.0 mi SW 12.7 mph - N/A   Overcast
5:15 PM 53.8 °F - 32.9 °F 45% 29.83 in 10.0 mi WSW 12.7 mph 19.6 mph N/A   Overcast
5:35 PM 53.6 °F - 33.4 °F 46% 29.83 in 10.0 mi WSW 6.9 mph - N/A   Overcast
5:55 PM 53.1 °F - 34.0 °F 48% 29.84 in 10.0 mi WSW 6.9 mph - N/A   Overcast
6:15 PM 52.7 °F - 34.9 °F 51% 29.84 in 10.0 mi SW 5.8 mph - N/A   Overcast
6:35 PM 51.3 °F - 36.9 °F 58% 29.85 in 10.0 mi SSW 5.8 mph - N/A Rain Light Rain
6:55 PM 50.5 °F - 37.8 °F 62% 29.85 in 10.0 mi SSW 8.1 mph - N/A   Light Drizzle
7:15 PM 50.9 °F - 37.8 °F 61% 29.85 in 10.0 mi SSW 8.1 mph - N/A   Overcast
7:35 PM 50.9 °F - 37.8 °F 61% 29.85 in 10.0 mi SSW 6.9 mph - N/A   Overcast
7:55 PM 50.2 °F - 37.8 °F 62% 29.85 in 10.0 mi SSW 5.8 mph - N/A   Overcast
8:15 PM 50.0 °F - 37.8 °F 63% 29.85 in 10.0 mi SSW 8.1 mph - N/A   Overcast
8:35 PM 50.0 °F - 38.1 °F 64% 29.85 in 10.0 mi SSW 10.4 mph - N/A   Overcast
8:55 PM 50.0 °F - 38.3 °F 64% 29.85 in 10.0 mi SSW 8.1 mph - N/A   Overcast
9:15 PM 49.5 °F - 38.5 °F 66% 29.85 in 10.0 mi SSW 9.2 mph - N/A   Overcast
9:35 PM 49.3 °F - 38.7 °F 67% 29.86 in 10.0 mi SSW 9.2 mph - N/A   Overcast
9:55 PM 49.1 °F - 38.8 °F 68% 29.86 in 10.0 mi SSW 9.2 mph - N/A   Overcast
10:15 PM 49.3 °F - 39.2 °F 68% 29.86 in 10.0 mi SW 8.1 mph - N/A   Overcast
10:35 PM 49.1 °F - 39.2 °F 69% 29.86 in 10.0 mi SW 9.2 mph - N/A   Overcast
10:55 PM 48.2 °F - 39.2 °F 71% 29.86 in 10.0 mi SW 10.4 mph - N/A   Mostly Cloudy
11:15 PM 47.1 °F - 39.0 °F 73% 29.86 in 10.0 mi SW 9.2 mph - N/A   Clear
11:35 PM 46.2 °F 41.7 °F 38.7 °F 75% 29.86 in 10.0 mi SW 9.2 mph - N/A   Clear
11:55 PM 45.0 °F 39.7 °F 38.5 °F 78% 29.86 in 10.0 mi SSW 10.4 mph - N/A   Clear